This is the latest recevied weather packets stored in our database for station/object KE8AFF-13. If no packets are shown the sender has not sent any weather packets the latest 10 day(s).
| Time | Temp. | Humidity | Pressure | Rain* | Wind** | Luminosity | Snow |
|---|---|---|---|---|---|---|---|
| 1778002322 | 18.33° C | 76% | 1007.6 hPa | 0 mm | - | 67 W/m² | - |
| 1778002019 | 18.33° C | 76% | 1007.5 hPa | 0 mm | - | 94 W/m² | - |
| 1778001715 | 18.33° C | 75% | 1007.3 hPa | 0 mm | - | 99 W/m² | - |
| 1778001415 | 18.89° C | 75% | 1007.4 hPa | 0 mm | - | 147 W/m² | - |
| 1778001113 | 18.89° C | 74% | 1007.5 hPa | 0 mm | - | 185 W/m² | - |
| 1778000810 | 18.89° C | 74% | 1007.5 hPa | 0 mm | - | 95 W/m² | - |
| 1778000507 | 18.89° C | 73% | 1007.4 hPa | 0 mm | - | 129 W/m² | - |
| 1778000207 | 18.89° C | 72% | 1007.3 hPa | 0 mm | - | 99 W/m² | - |
| 1777999903 | 18.89° C | 71% | 1007.6 hPa | 0 mm | - | 143 W/m² | - |
| 1777999599 | 18.89° C | 71% | 1007.5 hPa | 0 mm | - | 101 W/m² | - |
| 1777999297 | 18.89° C | 72% | 1007.6 hPa | 0 mm | - | 95 W/m² | - |
| 1777998995 | 18.89° C | 72% | 1007.8 hPa | 0 mm | - | 93 W/m² | - |
| 1777998692 | 18.89° C | 72% | 1007.7 hPa | 0 mm | - | 170 W/m² | - |
| 1777998389 | 18.89° C | 71% | 1007.5 hPa | 0 mm | - | 146 W/m² | - |
| 1777998087 | 19.44° C | 71% | 1007.8 hPa | 0 mm | - | 159 W/m² | - |
| 1777997784 | 18.89° C | 71% | 1007.9 hPa | 0 mm | - | 320 W/m² | - |
| 1777997481 | 18.89° C | 71% | 1007.8 hPa | 0 mm | - | 294 W/m² | - |
| 1777997179 | 18.89° C | 71% | 1007.7 hPa | 0 mm | - | 275 W/m² | - |
| 1777996876 | 18.89° C | 70% | 1007.7 hPa | 0 mm | - | 312 W/m² | - |
| 1777996572 | 18.89° C | 70% | 1007.8 hPa | 0 mm | - | 497 W/m² | - |
| 1777996268 | 18.89° C | 71% | 1007.7 hPa | 0 mm | - | 218 W/m² | - |
| 1777995964 | 18.89° C | 69% | 1007.9 hPa | 0 mm | - | 165 W/m² | - |
| 1777995661 | 18.89° C | 69% | 1007.6 hPa | 0 mm | - | 146 W/m² | - |
| 1777995358 | 18.89° C | 70% | 1007.8 hPa | 0 mm | - | 197 W/m² | - |
| 1777995055 | 18.89° C | 70% | 1007.7 hPa | 0 mm | - | 143 W/m² | - |
* Rain latest hour (hover to see other rain measurements)
** Current wind speed in m/s (hover to see current wind gust speed)